CZ-6A DEB

Satellite information

Favourite Embed

Satellite Type and Status

DEBRISIN ORBIT

Key statistics

Satellite CZ-6A DEB at a glance.

Uptime

909

Days in orbit

Revolutions

≈ 13.9

Per day

Orbit

SSO

Sun Synchronous Orbit

Inclination

98.9

Latest

Satellite identification and parameters

Extended collection of information and parameters for CZ-6A DEB.

Object identification

Identified? True

Debris? True

Object name: CZ-6A DEB

International designator: 2022-151AGE

Object number (NORAD): 56654

Object ID (CCSDS): 56654

Country: PEOPLES REPUBLIC OF CHINA (PRC)

Current information (Y/N): Y

RCS size: SMALL

Orbital parameters

Period: 103.266 minutes

Inclination: 98.8532 deg

SMA: 7291.201 km

Apoapsis: 1013.513 km

Periapsis: 812.619 km

RAAN: 103.5987 deg

Eccentricy: 0.0137765

Argument of periapsis: 137.8923 deg

Mean anomaly: 223.2923 deg

Mean motion: 13.94453884 rev/day

Mean motion (dot): 0.00000662 rev/day2

B* drag term: 0.00048763 1/REarth

Two-line elements (TLE)

Creation date: May 4, 2025, 10:36 p.m.

Reference frame: TEME

Reference center: EARTH

Epoch: May 4, 2025, 8:54 p.m. UTC

TLE line 0: 0 CZ-6A DEB

TLE line 1: 1 56654U 22151AGE 25124.87142922 .00000662 00000-0 48763-3 0 9991

TLE line 2: 2 56654 98.8532 103.5987 0137765 137.8923 223.2923 13.94453884103565

Live tracking on map

Real-time ground track for satellite CZ-6A DEB.

In-orbit conjunctions

A list of the most updated potential collisions computed for object CZ-6A DEB.

Target Orbit TCA Probability of collision Miss distance Type
COSMOS 1275 DEB LEO 2024-11-21 07:57:37 0.0001937568 85.0 (m) DEBRIS
CZ-6A DEB LEO 2024-10-31 23:55:04 0.0001163199 148.0 (m) DEBRIS

Associated space launch

Chinese satellite reported for atmospheric/ocean/environmental/spatial parameter research purposes, details TBD.

CZ-6A DEB was lifted into orbit during the mission ‘Long March 6A | Yunhai 3’, on board a Long March 6A space rocket.

The launch took place on Nov. 11, 2022, 10:52 p.m. from Launch Complex 9A.

For more information about the launch, click the button.

Launch to space Long March 6A | Yunhai 3
Long March 6A | Yunhai 3

Agency: N/A

Status: Launch Successful

Launch date: Nov. 11, 2022, 10:52 p.m. UTC

Rocket: Long March 6A

Launch pad: Launch Complex 9A

Location: Taiyuan Satellite Launch Center, People's Republic of China

...

Latest news about this satellite

There are no fresh news available about this satellite. Check back as we update our databases every day.


Newsletter sign-up

Weekly statistics, charts and insights to help you stay on top of the space industry.